Simultaneous Nadir Overpasses (SNOs) Predictions

Prediction of SNOs between METOP-A and NOAA-19 Satellite Orbit:

Table of predicted SNOs for the next 14.0 days since TLE Epoch: 11/25/2011
Index Date Time (METOP-A) METOP-A Lat,Lon NOAA-19 Lat,Lon Distance(km) Time Diff (sec)
1 12/01/2011 12:14:20 75.46, -4.97 75.45, -17.35 345.00 33
2 12/01/2011 13:05:20 -74.58, 159.78 -74.61, 152.41 217.92 52
3 12/01/2011 13:56:22 73.49, -35.59 73.55, -37.66 65.76 69
4 12/01/2011 14:47:12 -73.07, 130.79 -73.06, 130.72 2.76 70
5 12/01/2011 15:37:53 73.02, -61.99 73.02, -61.98 0.83 45
6 12/01/2011 16:28:35 -73.00, 105.30 -73.03, 105.26 3.39 28
7 12/01/2011 17:19:15 73.00, -87.38 72.99, -87.43 1.87 2
8 12/01/2011 18:09:57 -72.98, 79.91 -72.95, 79.92 3.61 14
9 12/01/2011 19:00:38
